owner,sensor,date,latitude,longitude,vertical_datum,sea_water_speed,direction_of_sea_water_velocity,upward_sea_water_velocity,qcFlag
Anadarko,ioos:station:wmo:42377:1,2024-02-26T19:34:00Z,27.2925,-90.9681,21.3,11.4,4.0,-9999.0,'111111111,111111111,999999991'
Anadarko,ioos:station:wmo:42377:1,2024-02-26T19:54:00Z,27.2925,-90.9681,21.3,11.4,4.0,-9999.0,'111111111,111111111,999999991'
Anadarko,ioos:station:wmo:42377:1,2024-02-26T20:14:00Z,27.2925,-90.9681,21.3,11.7,11.8,-9999.0,'111111111,111111111,999999991'
Anadarko,ioos:station:wmo:42377:1,2024-02-26T20:55:00Z,27.2925,-90.9681,21.3,10.6,1.6,-9999.0,'111111111,111111111,999999991'
Anadarko,ioos:station:wmo:42377:1,2024-02-26T21:15:00Z,27.2925,-90.9681,21.3,10.6,359.5,-9999.0,'111111111,111441111,999999991'
Anadarko,ioos:station:wmo:42377:1,2024-02-26T21:35:00Z,27.2925,-90.9681,21.3,9.7,355.9,-9999.0,'111111111,111111111,999999991'
Anadarko,ioos:station:wmo:42377:1,2024-02-26T21:55:00Z,27.2925,-90.9681,21.3,9.9,355.4,-9999.0,'111111111,111111111,999999991'
Anadarko,ioos:station:wmo:42377:1,2024-02-26T23:08:00Z,27.2925,-90.9681,21.3,12.1,318.0,-9999.0,'111111111,111111111,999999991'
Anadarko,ioos:station:wmo:42377:1,2024-02-26T23:28:00Z,27.2925,-90.9681,21.3,13.3,322.4,-9999.0,'111111111,111111111,999999991'
Anadarko,ioos:station:wmo:42377:1,2024-02-26T23:48:00Z,27.2925,-90.9681,21.3,13.7,329.7,-9999.0,'111111111,111111111,999999991'
Anadarko,ioos:station:wmo:42377:1,2024-02-27T00:08:00Z,27.2925,-90.9681,21.3,15.1,328.8,-9999.0,'111111111,111111111,999999991'
Anadarko,ioos:station:wmo:42377:1,2024-02-27T00:28:00Z,27.2925,-90.9681,21.3,17.5,339.9,-9999.0,'111111111,111111111,999999991'
Anadarko,ioos:station:wmo:42377:1,2024-02-27T00:48:00Z,27.2925,-90.9681,21.3,19.2,348.9,-9999.0,'111111111,111111111,999999991'
Anadarko,ioos:station:wmo:42377:1,2024-02-27T01:08:00Z,27.2925,-90.9681,21.3,21.3,351.1,-9999.0,'111111111,111111111,999999991'
Anadarko,ioos:station:wmo:42377:1,2024-02-27T01:28:00Z,27.2925,-90.9681,21.3,22.4,354.4,-9999.0,'111111111,111111111,999999991'
Anadarko,ioos:station:wmo:42377:1,2024-02-27T01:48:00Z,27.2925,-90.9681,21.3,21.4,358.9,-9999.0,'111111111,111111111,999999991'
Anadarko,ioos:station:wmo:42377:1,2024-02-27T02:08:00Z,27.2925,-90.9681,21.3,20.8,358.6,-9999.0,'111111111,111111111,999999991'
Anadarko,ioos:station:wmo:42377:1,2024-02-27T02:28:00Z,27.2925,-90.9681,21.3,23.0,5.2,-9999.0,'111111111,111111111,999999991'
Anadarko,ioos:station:wmo:42377:1,2024-02-27T02:48:00Z,27.2925,-90.9681,21.3,22.5,5.6,-9999.0,'111111111,111111111,999999991'
Anadarko,ioos:station:wmo:42377:1,2024-02-27T03:08:00Z,27.2925,-90.9681,21.3,23.4,7.6,-9999.0,'111111111,111111111,999999991'
Anadarko,ioos:station:wmo:42377:1,2024-02-27T03:28:00Z,27.2925,-90.9681,21.3,25.8,9.8,-9999.0,'111111111,111111111,999999991'
Anadarko,ioos:station:wmo:42377:1,2024-02-27T03:48:00Z,27.2925,-90.9681,21.3,25.8,13.7,-9999.0,'111111111,111111111,999999991'
Anadarko,ioos:station:wmo:42377:1,2024-02-27T04:08:00Z,27.2925,-90.9681,21.3,23.7,12.9,-9999.0,'111111111,111111111,999999991'
Anadarko,ioos:station:wmo:42377:1,2024-02-27T04:28:00Z,27.2925,-90.9681,21.3,24.9,17.6,-9999.0,'111111111,111111111,999999991'
Anadarko,ioos:station:wmo:42377:1,2024-02-27T04:48:00Z,27.2925,-90.9681,21.3,25.8,21.9,-9999.0,'111111111,111111111,999999991'
Anadarko,ioos:station:wmo:42377:1,2024-02-27T05:08:00Z,27.2925,-90.9681,21.3,28.1,21.7,-9999.0,'111111111,111111111,999999991'
Anadarko,ioos:station:wmo:42377:1,2024-02-27T05:28:00Z,27.2925,-90.9681,21.3,29.2,23.4,-9999.0,'111111111,111111111,999999991'
Anadarko,ioos:station:wmo:42377:1,2024-02-27T05:48:00Z,27.2925,-90.9681,21.3,28.6,22.0,-9999.0,'111111111,111111111,999999991'
Anadarko,ioos:station:wmo:42377:1,2024-02-27T06:08:00Z,27.2925,-90.9681,21.3,29.8,23.1,-9999.0,'111111111,111111111,999999991'
Anadarko,ioos:station:wmo:42377:1,2024-02-27T06:28:00Z,27.2925,-90.9681,21.3,31.5,23.6,-9999.0,'111111111,111111111,999999991'
Anadarko,ioos:station:wmo:42377:1,2024-02-27T06:48:00Z,27.2925,-90.9681,21.3,31.7,25.4,-9999.0,'111111111,111111111,999999991'
Anadarko,ioos:station:wmo:42377:1,2024-02-27T07:08:00Z,27.2925,-90.9681,21.3,32.1,23.3,-9999.0,'111111111,111111111,999999991'
Anadarko,ioos:station:wmo:42377:1,2024-02-27T07:28:00Z,27.2925,-90.9681,21.3,31.6,23.9,-9999.0,'111111111,111111111,999999991'
Anadarko,ioos:station:wmo:42377:1,2024-02-27T07:48:00Z,27.2925,-90.9681,21.3,32.6,24.4,-9999.0,'111111111,111111111,999999991'
Anadarko,ioos:station:wmo:42377:1,2024-02-27T08:08:00Z,27.2925,-90.9681,21.3,32.0,25.1,-9999.0,'111111111,111111111,999999991'
Anadarko,ioos:station:wmo:42377:1,2024-02-27T08:28:00Z,27.2925,-90.9681,21.3,31.8,25.8,-9999.0,'111111111,111111111,999999991'
Anadarko,ioos:station:wmo:42377:1,2024-02-27T08:48:00Z,27.2925,-90.9681,21.3,31.3,28.6,-9999.0,'111111111,111111111,999999991'
Anadarko,ioos:station:wmo:42377:1,2024-02-27T09:08:00Z,27.2925,-90.9681,21.3,29.4,31.5,-9999.0,'111111111,111111111,999999991'
Anadarko,ioos:station:wmo:42377:1,2024-02-27T09:28:00Z,27.2925,-90.9681,21.3,28.5,34.1,-9999.0,'111111111,111111111,999999991'
Anadarko,ioos:station:wmo:42377:1,2024-02-27T09:48:00Z,27.2925,-90.9681,21.3,26.5,36.3,-9999.0,'111111111,111111111,999999991'
Anadarko,ioos:station:wmo:42377:1,2024-02-27T10:08:00Z,27.2925,-90.9681,21.3,26.1,36.4,-9999.0,'111111111,111111111,999999991'
Anadarko,ioos:station:wmo:42377:1,2024-02-27T10:28:00Z,27.2925,-90.9681,21.3,25.9,39.5,-9999.0,'111111111,111111111,999999991'
Anadarko,ioos:station:wmo:42377:1,2024-02-27T10:48:00Z,27.2925,-90.9681,21.3,26.7,42.1,-9999.0,'111111111,111111111,999999991'
Anadarko,ioos:station:wmo:42377:1,2024-02-27T11:08:00Z,27.2925,-90.9681,21.3,28.0,43.0,-9999.0,'111111111,111111111,999999991'
Anadarko,ioos:station:wmo:42377:1,2024-02-27T11:28:00Z,27.2925,-90.9681,21.3,28.4,43.7,-9999.0,'111111111,111111111,999999991'
Anadarko,ioos:station:wmo:42377:1,2024-02-27T11:48:00Z,27.2925,-90.9681,21.3,27.2,45.7,-9999.0,'111111111,111111111,999999991'
Anadarko,ioos:station:wmo:42377:1,2024-02-27T12:08:00Z,27.2925,-90.9681,21.3,25.8,47.8,-9999.0,'111111111,111111111,999999991'
Anadarko,ioos:station:wmo:42377:1,2024-02-27T12:28:00Z,27.2925,-90.9681,21.3,25.6,47.5,-9999.0,'111111111,111111111,999999991'
Anadarko,ioos:station:wmo:42377:1,2024-02-27T12:48:00Z,27.2925,-90.9681,21.3,23.8,44.5,-9999.0,'111111111,111111111,999999991'
Anadarko,ioos:station:wmo:42377:1,2024-02-27T13:08:00Z,27.2925,-90.9681,21.3,25.6,42.0,-9999.0,'111111111,111111111,999999991'
Anadarko,ioos:station:wmo:42377:1,2024-02-27T13:28:00Z,27.2925,-90.9681,21.3,27.6,38.1,-9999.0,'111111111,111111111,999999991'
Anadarko,ioos:station:wmo:42377:1,2024-02-27T13:48:00Z,27.2925,-90.9681,21.3,26.9,35.9,-9999.0,'111111111,111111111,999999991'
Anadarko,ioos:station:wmo:42377:1,2024-02-27T14:08:00Z,27.2925,-90.9681,21.3,27.8,35.3,-9999.0,'111111111,111111111,999999991'
Anadarko,ioos:station:wmo:42377:1,2024-02-27T14:28:00Z,27.2925,-90.9681,21.3,28.9,33.9,-9999.0,'111111111,111111111,999999991'
Anadarko,ioos:station:wmo:42377:1,2024-02-27T14:48:00Z,27.2925,-90.9681,21.3,29.5,34.1,-9999.0,'111111111,111111111,999999991'
Anadarko,ioos:station:wmo:42377:1,2024-02-27T15:08:00Z,27.2925,-90.9681,21.3,28.4,35.5,-9999.0,'111111111,111111111,999999991'
Anadarko,ioos:station:wmo:42377:1,2024-02-27T15:28:00Z,27.2925,-90.9681,21.3,27.7,35.0,-9999.0,'111111111,111111111,999999991'
Anadarko,ioos:station:wmo:42377:1,2024-02-27T15:48:00Z,27.2925,-90.9681,21.3,25.3,38.6,-9999.0,'111111111,111111111,999999991'
Anadarko,ioos:station:wmo:42377:1,2024-02-27T16:08:00Z,27.2925,-90.9681,21.3,26.0,38.0,-9999.0,'111111111,111111111,999999991'
Anadarko,ioos:station:wmo:42377:1,2024-02-27T16:28:00Z,27.2925,-90.9681,21.3,24.8,36.6,-9999.0,'111111111,111111111,999999991'
Anadarko,ioos:station:wmo:42377:1,2024-02-27T16:48:00Z,27.2925,-90.9681,21.3,24.2,36.3,-9999.0,'111111111,111111111,999999991'
Anadarko,ioos:station:wmo:42377:1,2024-02-27T17:08:00Z,27.2925,-90.9681,21.3,26.4,29.8,-9999.0,'111111111,111111111,999999991'
Anadarko,ioos:station:wmo:42377:1,2024-02-27T17:28:00Z,27.2925,-90.9681,21.3,26.5,30.1,-9999.0,'111111111,111111111,999999991'
Anadarko,ioos:station:wmo:42377:1,2024-02-27T17:48:00Z,27.2925,-90.9681,21.3,24.1,29.9,-9999.0,'111111111,111111111,999999991'
Anadarko,ioos:station:wmo:42377:1,2024-02-27T19:17:00Z,27.2925,-90.9681,21.3,21.6,32.1,-9999.0,'111111111,111111111,999999991'
Anadarko,ioos:station:wmo:42377:1,2024-02-27T19:37:00Z,27.2925,-90.9681,21.3,19.2,39.5,-9999.0,'111111111,111111111,999999991'
Anadarko,ioos:station:wmo:42377:1,2024-02-27T19:57:00Z,27.2925,-90.9681,21.3,18.6,44.3,-9999.0,'111111111,111111111,999999991'
Anadarko,ioos:station:wmo:42377:1,2024-02-27T20:17:00Z,27.2925,-90.9681,21.3,18.7,45.2,-9999.0,'111111111,111111111,999999991'
Anadarko,ioos:station:wmo:42377:1,2024-02-27T20:37:00Z,27.2925,-90.9681,21.3,16.6,47.0,-9999.0,'111111111,111111111,999999991'
Anadarko,ioos:station:wmo:42377:1,2024-02-27T20:57:00Z,27.2925,-90.9681,21.3,13.3,48.0,-9999.0,'111111111,111111111,999999991'
Anadarko,ioos:station:wmo:42377:1,2024-02-27T21:19:00Z,27.2925,-90.9681,21.3,10.9,50.6,-9999.0,'111111111,111111111,999999991'
Anadarko,ioos:station:wmo:42377:1,2024-02-27T21:39:00Z,27.2925,-90.9681,21.3,9.9,48.3,-9999.0,'111111111,111111111,999999991'
Anadarko,ioos:station:wmo:42377:1,2024-02-27T21:59:00Z,27.2925,-90.9681,21.3,7.9,41.9,-9999.0,'111111111,111111111,999999991'
Anadarko,ioos:station:wmo:42377:1,2024-02-27T22:19:00Z,27.2925,-90.9681,21.3,7.5,30.3,-9999.0,'111111111,111111111,999999991'
Anadarko,ioos:station:wmo:42377:1,2024-02-27T22:39:00Z,27.2925,-90.9681,21.3,6.6,8.7,-9999.0,'111111111,111111111,999999991'
Anadarko,ioos:station:wmo:42377:1,2024-02-27T22:59:00Z,27.2925,-90.9681,21.3,5.9,8.8,-9999.0,'111111111,111111111,999999991'
Anadarko,ioos:station:wmo:42377:1,2024-02-27T23:19:00Z,27.2925,-90.9681,21.3,4.7,22.7,-9999.0,'111111111,111111111,999999991'
Anadarko,ioos:station:wmo:42377:1,2024-02-27T23:39:00Z,27.2925,-90.9681,21.3,4.7,27.6,-9999.0,'111111111,111111111,999999991'
Anadarko,ioos:station:wmo:42377:1,2024-02-27T23:59:00Z,27.2925,-90.9681,21.3,4.6,18.8,-9999.0,'111111111,111111111,999999991'
Anadarko,ioos:station:wmo:42377:1,2024-02-28T00:19:00Z,27.2925,-90.9681,21.3,5.5,4.2,-9999.0,'111111111,111111111,999999991'
Anadarko,ioos:station:wmo:42377:1,2024-02-28T00:39:00Z,27.2925,-90.9681,21.3,4.2,6.8,-9999.0,'111111111,111111111,999999991'
Anadarko,ioos:station:wmo:42377:1,2024-02-28T00:59:00Z,27.2925,-90.9681,21.3,5.0,3.4,-9999.0,'111111111,111111111,999999991'
Anadarko,ioos:station:wmo:42377:1,2024-02-28T01:19:00Z,27.2925,-90.9681,21.3,7.4,343.5,-9999.0,'111111111,111111111,999999991'
Anadarko,ioos:station:wmo:42377:1,2024-02-28T01:39:00Z,27.2925,-90.9681,21.3,9.2,345.5,-9999.0,'111111111,111111111,999999991'
Anadarko,ioos:station:wmo:42377:1,2024-02-28T01:59:00Z,27.2925,-90.9681,21.3,10.2,338.7,-9999.0,'111111111,111111111,999999991'
Anadarko,ioos:station:wmo:42377:1,2024-02-28T02:19:00Z,27.2925,-90.9681,21.3,10.9,337.4,-9999.0,'111111111,111111111,999999991'
Anadarko,ioos:station:wmo:42377:1,2024-02-28T02:39:00Z,27.2925,-90.9681,21.3,9.9,343.6,-9999.0,'111111111,111111111,999999991'
Anadarko,ioos:station:wmo:42377:1,2024-02-28T02:59:00Z,27.2925,-90.9681,21.3,9.0,347.8,-9999.0,'111111111,111111111,999999991'
Anadarko,ioos:station:wmo:42377:1,2024-02-28T03:19:00Z,27.2925,-90.9681,21.3,8.0,352.8,-9999.0,'111111111,111111111,999999991'
Anadarko,ioos:station:wmo:42377:1,2024-02-28T03:39:00Z,27.2925,-90.9681,21.3,9.2,349.3,-9999.0,'111111111,111111111,999999991'
Anadarko,ioos:station:wmo:42377:1,2024-02-28T03:59:00Z,27.2925,-90.9681,21.3,10.7,349.7,-9999.0,'111111111,111111111,999999991'
Anadarko,ioos:station:wmo:42377:1,2024-02-28T04:19:00Z,27.2925,-90.9681,21.3,15.8,345.0,-9999.0,'111111111,111111111,999999991'
Anadarko,ioos:station:wmo:42377:1,2024-02-28T04:39:00Z,27.2925,-90.9681,21.3,16.6,347.1,-9999.0,'111111111,111111111,999999991'
Anadarko,ioos:station:wmo:42377:1,2024-02-28T04:59:00Z,27.2925,-90.9681,21.3,15.9,349.9,-9999.0,'111111111,111111111,999999991'
Anadarko,ioos:station:wmo:42377:1,2024-02-28T05:19:00Z,27.2925,-90.9681,21.3,16.1,347.4,-9999.0,'111111111,111111111,999999991'
Anadarko,ioos:station:wmo:42377:1,2024-02-28T05:39:00Z,27.2925,-90.9681,21.3,16.2,344.2,-9999.0,'111111111,111111111,999999991'
Anadarko,ioos:station:wmo:42377:1,2024-02-28T05:59:00Z,27.2925,-90.9681,21.3,16.6,336.5,-9999.0,'111111111,111111111,999999991'
Anadarko,ioos:station:wmo:42377:1,2024-02-28T06:19:00Z,27.2925,-90.9681,21.3,18.1,331.6,-9999.0,'111111111,111111111,999999991'
Anadarko,ioos:station:wmo:42377:1,2024-02-28T06:39:00Z,27.2925,-90.9681,21.3,17.9,329.4,-9999.0,'111111111,111111111,999999991'
Anadarko,ioos:station:wmo:42377:1,2024-02-28T06:59:00Z,27.2925,-90.9681,21.3,18.2,325.5,-9999.0,'111111111,111111111,999999991'
Anadarko,ioos:station:wmo:42377:1,2024-02-28T07:19:00Z,27.2925,-90.9681,21.3,19.5,327.4,-9999.0,'111111111,111111111,999999991'
Anadarko,ioos:station:wmo:42377:1,2024-02-28T07:39:00Z,27.2925,-90.9681,21.3,21.3,324.7,-9999.0,'111111111,111111111,999999991'
Anadarko,ioos:station:wmo:42377:1,2024-02-28T07:59:00Z,27.2925,-90.9681,21.3,22.1,324.6,-9999.0,'111111111,111111111,999999991'
Anadarko,ioos:station:wmo:42377:1,2024-02-28T08:19:00Z,27.2925,-90.9681,21.3,20.2,324.3,-9999.0,'111111111,111111111,999999991'
Anadarko,ioos:station:wmo:42377:1,2024-02-28T08:39:00Z,27.2925,-90.9681,21.3,21.0,319.6,-9999.0,'111111111,111111111,999999991'
Anadarko,ioos:station:wmo:42377:1,2024-02-28T08:59:00Z,27.2925,-90.9681,21.3,22.1,317.2,-9999.0,'111111111,111111111,999999991'
Anadarko,ioos:station:wmo:42377:1,2024-02-28T09:19:00Z,27.2925,-90.9681,21.3,22.2,318.3,-9999.0,'111111111,111111111,999999991'
Anadarko,ioos:station:wmo:42377:1,2024-02-28T09:39:00Z,27.2925,-90.9681,21.3,22.4,320.6,-9999.0,'111111111,111111111,999999991'
Anadarko,ioos:station:wmo:42377:1,2024-02-28T09:59:00Z,27.2925,-90.9681,21.3,22.6,322.7,-9999.0,'111111111,111111111,999999991'
Anadarko,ioos:station:wmo:42377:1,2024-02-28T10:19:00Z,27.2925,-90.9681,21.3,21.7,328.6,-9999.0,'111111111,111111111,999999991'
Anadarko,ioos:station:wmo:42377:1,2024-02-28T10:39:00Z,27.2925,-90.9681,21.3,20.8,332.6,-9999.0,'111111111,111111111,999999991'
Anadarko,ioos:station:wmo:42377:1,2024-02-28T10:59:00Z,27.2925,-90.9681,21.3,19.9,334.7,-9999.0,'111111111,111111111,999999991'
Anadarko,ioos:station:wmo:42377:1,2024-02-28T11:19:00Z,27.2925,-90.9681,21.3,15.7,340.3,-9999.0,'111111111,111111111,999999991'
Anadarko,ioos:station:wmo:42377:1,2024-02-28T11:39:00Z,27.2925,-90.9681,21.3,13.2,341.0,-9999.0,'111111111,111111111,999999991'
Anadarko,ioos:station:wmo:42377:1,2024-02-28T11:59:00Z,27.2925,-90.9681,21.3,12.6,341.4,-9999.0,'111111111,111111111,999999991'
Anadarko,ioos:station:wmo:42377:1,2024-02-28T12:19:00Z,27.2925,-90.9681,21.3,11.4,323.5,-9999.0,'111111111,111111111,999999991'
Anadarko,ioos:station:wmo:42377:1,2024-02-28T12:39:00Z,27.2925,-90.9681,21.3,10.2,296.3,-9999.0,'111111111,111111111,999999991'
Anadarko,ioos:station:wmo:42377:1,2024-02-28T12:59:00Z,27.2925,-90.9681,21.3,11.2,301.1,-9999.0,'111111111,111111111,999999991'
Anadarko,ioos:station:wmo:42377:1,2024-02-28T15:16:00Z,27.2925,-90.9681,21.3,20.9,324.6,-9999.0,'111111111,111111111,999999991'
Anadarko,ioos:station:wmo:42377:1,2024-02-28T15:36:00Z,27.2925,-90.9681,21.3,22.2,327.7,-9999.0,'111111111,111111111,999999991'
Anadarko,ioos:station:wmo:42377:1,2024-02-28T15:56:00Z,27.2925,-90.9681,21.3,22.4,329.7,-9999.0,'111111111,111111111,999999991'
Anadarko,ioos:station:wmo:42377:1,2024-02-28T16:16:00Z,27.2925,-90.9681,21.3,22.3,333.3,-9999.0,'111111111,111111111,999999991'
Anadarko,ioos:station:wmo:42377:1,2024-02-28T16:36:00Z,27.2925,-90.9681,21.3,23.3,341.5,-9999.0,'111111111,111111111,999999991'
Anadarko,ioos:station:wmo:42377:1,2024-02-28T16:56:00Z,27.2925,-90.9681,21.3,22.1,337.6,-9999.0,'111111111,111111111,999999991'
Anadarko,ioos:station:wmo:42377:1,2024-02-28T17:16:00Z,27.2925,-90.9681,21.3,22.7,342.0,-9999.0,'111111111,111111111,999999991'
Anadarko,ioos:station:wmo:42377:1,2024-02-28T17:36:00Z,27.2925,-90.9681,21.3,21.2,343.0,-9999.0,'111111111,111111111,999999991'
Anadarko,ioos:station:wmo:42377:1,2024-02-28T17:56:00Z,27.2925,-90.9681,21.3,21.6,337.4,-9999.0,'111111111,111111111,999999991'
Anadarko,ioos:station:wmo:42377:1,2024-02-28T18:16:00Z,27.2925,-90.9681,21.3,21.8,333.0,-9999.0,'111111111,111111111,999999991'
Anadarko,ioos:station:wmo:42377:1,2024-02-28T18:36:00Z,27.2925,-90.9681,21.3,21.0,333.4,-9999.0,'111111111,111111111,999999991'
Anadarko,ioos:station:wmo:42377:1,2024-02-28T18:56:00Z,27.2925,-90.9681,21.3,19.0,329.0,-9999.0,'111111111,111111111,999999991'
Anadarko,ioos:station:wmo:42377:1,2024-02-28T19:16:00Z,27.2925,-90.9681,21.3,19.3,327.5,-9999.0,'111111111,111111111,999999991'
Anadarko,ioos:station:wmo:42377:1,2024-02-28T19:36:00Z,27.2925,-90.9681,21.3,18.7,328.8,-9999.0,'111111111,111111111,999999991'
Anadarko,ioos:station:wmo:42377:1,2024-02-28T19:55:00Z,27.2925,-90.9681,21.3,17.6,327.3,-9999.0,'111111111,111111111,999999991'
Anadarko,ioos:station:wmo:42377:1,2024-02-28T20:15:00Z,27.2925,-90.9681,21.3,18.5,330.1,-9999.0,'111111111,111111111,999999991'
Anadarko,ioos:station:wmo:42377:1,2024-02-28T20:35:00Z,27.2925,-90.9681,21.3,18.8,330.3,-9999.0,'111111111,111111111,999999991'
Anadarko,ioos:station:wmo:42377:1,2024-02-28T20:55:00Z,27.2925,-90.9681,21.3,16.1,338.5,-9999.0,'111111111,111111111,999999991'
Anadarko,ioos:station:wmo:42377:1,2024-02-28T21:15:00Z,27.2925,-90.9681,21.3,15.4,334.3,-9999.0,'111111111,111111111,999999991'
Anadarko,ioos:station:wmo:42377:1,2024-02-28T21:35:00Z,27.2925,-90.9681,21.3,15.0,330.9,-9999.0,'111111111,111111111,999999991'
Anadarko,ioos:station:wmo:42377:1,2024-02-28T21:55:00Z,27.2925,-90.9681,21.3,14.4,333.1,-9999.0,'111111111,111111111,999999991'
Anadarko,ioos:station:wmo:42377:1,2024-02-28T22:15:00Z,27.2925,-90.9681,21.3,14.8,332.2,-9999.0,'111111111,111111111,999999991'
Anadarko,ioos:station:wmo:42377:1,2024-02-28T22:35:00Z,27.2925,-90.9681,21.3,15.0,333.9,-9999.0,'111111111,111111111,999999991'
Anadarko,ioos:station:wmo:42377:1,2024-02-28T22:55:00Z,27.2925,-90.9681,21.3,16.0,324.1,-9999.0,'111111111,111111111,999999991'
Anadarko,ioos:station:wmo:42377:1,2024-02-28T23:15:00Z,27.2925,-90.9681,21.3,16.1,323.3,-9999.0,'111111111,111111111,999999991'
Anadarko,ioos:station:wmo:42377:1,2024-02-28T23:35:00Z,27.2925,-90.9681,21.3,16.4,313.0,-9999.0,'111111111,111111111,999999991'
Anadarko,ioos:station:wmo:42377:1,2024-02-28T23:55:00Z,27.2925,-90.9681,21.3,16.0,317.0,-9999.0,'111111111,111111111,999999991'
Anadarko,ioos:station:wmo:42377:1,2024-02-29T00:15:00Z,27.2925,-90.9681,21.3,14.5,321.7,-9999.0,'111111111,111111111,999999991'
Anadarko,ioos:station:wmo:42377:1,2024-02-29T00:35:00Z,27.2925,-90.9681,21.3,16.5,332.2,-9999.0,'111111111,111111111,999999991'
Anadarko,ioos:station:wmo:42377:1,2024-02-29T00:55:00Z,27.2925,-90.9681,21.3,17.8,341.0,-9999.0,'111111111,111111111,999999991'
Anadarko,ioos:station:wmo:42377:1,2024-02-29T01:15:00Z,27.2925,-90.9681,21.3,18.0,351.4,-9999.0,'111111111,111111111,999999991'
Anadarko,ioos:station:wmo:42377:1,2024-02-29T01:35:00Z,27.2925,-90.9681,21.3,15.3,348.0,-9999.0,'111111111,111111111,999999991'
Anadarko,ioos:station:wmo:42377:1,2024-02-29T01:55:00Z,27.2925,-90.9681,21.3,15.6,347.0,-9999.0,'111111111,111111111,999999991'
Anadarko,ioos:station:wmo:42377:1,2024-02-29T02:15:00Z,27.2925,-90.9681,21.3,15.8,346.8,-9999.0,'111111111,111111111,999999991'
Anadarko,ioos:station:wmo:42377:1,2024-02-29T02:35:00Z,27.2925,-90.9681,21.3,15.5,343.5,-9999.0,'111111111,111111111,999999991'
Anadarko,ioos:station:wmo:42377:1,2024-02-29T02:55:00Z,27.2925,-90.9681,21.3,16.4,347.3,-9999.0,'111111111,111111111,999999991'
Anadarko,ioos:station:wmo:42377:1,2024-02-29T03:15:00Z,27.2925,-90.9681,21.3,17.2,346.2,-9999.0,'111111111,111111111,999999991'
Anadarko,ioos:station:wmo:42377:1,2024-02-29T03:35:00Z,27.2925,-90.9681,21.3,17.8,348.0,-9999.0,'111111111,111111111,999999991'
Anadarko,ioos:station:wmo:42377:1,2024-02-29T03:55:00Z,27.2925,-90.9681,21.3,16.4,347.3,-9999.0,'111111111,111111111,999999991'
Anadarko,ioos:station:wmo:42377:1,2024-02-29T04:15:00Z,27.2925,-90.9681,21.3,17.5,340.3,-9999.0,'111111111,111111111,999999991'
Anadarko,ioos:station:wmo:42377:1,2024-02-29T04:35:00Z,27.2925,-90.9681,21.3,19.4,337.3,-9999.0,'111111111,111111111,999999991'
Anadarko,ioos:station:wmo:42377:1,2024-02-29T04:55:00Z,27.2925,-90.9681,21.3,22.5,331.0,-9999.0,'111111111,111111111,999999991'
Anadarko,ioos:station:wmo:42377:1,2024-02-29T05:15:00Z,27.2925,-90.9681,21.3,19.3,332.2,-9999.0,'111111111,111111111,999999991'
Anadarko,ioos:station:wmo:42377:1,2024-02-29T05:35:00Z,27.2925,-90.9681,21.3,19.2,328.9,-9999.0,'111111111,111111111,999999991'
Anadarko,ioos:station:wmo:42377:1,2024-02-29T05:55:00Z,27.2925,-90.9681,21.3,18.8,326.1,-9999.0,'111111111,111111111,999999991'
Anadarko,ioos:station:wmo:42377:1,2024-02-29T06:15:00Z,27.2925,-90.9681,21.3,20.6,323.7,-9999.0,'111111111,111111111,999999991'
Anadarko,ioos:station:wmo:42377:1,2024-02-29T06:35:00Z,27.2925,-90.9681,21.3,17.4,324.1,-9999.0,'111111111,111111111,999999991'
Anadarko,ioos:station:wmo:42377:1,2024-02-29T06:55:00Z,27.2925,-90.9681,21.3,16.6,320.4,-9999.0,'111111111,111111111,999999991'
Anadarko,ioos:station:wmo:42377:1,2024-02-29T07:15:00Z,27.2925,-90.9681,21.3,18.3,318.3,-9999.0,'111111111,111111111,999999991'
Anadarko,ioos:station:wmo:42377:1,2024-02-29T07:35:00Z,27.2925,-90.9681,21.3,18.4,317.6,-9999.0,'111111111,111111111,999999991'
Anadarko,ioos:station:wmo:42377:1,2024-02-29T07:55:00Z,27.2925,-90.9681,21.3,18.6,318.3,-9999.0,'111111111,111111111,999999991'
Anadarko,ioos:station:wmo:42377:1,2024-02-29T08:15:00Z,27.2925,-90.9681,21.3,17.9,320.9,-9999.0,'111111111,111111111,999999991'
Anadarko,ioos:station:wmo:42377:1,2024-02-29T08:35:00Z,27.2925,-90.9681,21.3,18.5,313.0,-9999.0,'111111111,111111111,999999991'
Anadarko,ioos:station:wmo:42377:1,2024-02-29T08:55:00Z,27.2925,-90.9681,21.3,18.3,309.4,-9999.0,'111111111,111111111,999999991'
Anadarko,ioos:station:wmo:42377:1,2024-02-29T09:15:00Z,27.2925,-90.9681,21.3,17.6,306.7,-9999.0,'111111111,111111111,999999991'
Anadarko,ioos:station:wmo:42377:1,2024-02-29T09:35:00Z,27.2925,-90.9681,21.3,17.4,302.8,-9999.0,'111111111,111111111,999999991'
Anadarko,ioos:station:wmo:42377:1,2024-02-29T09:55:00Z,27.2925,-90.9681,21.3,18.2,300.8,-9999.0,'111111111,111111111,999999991'
Anadarko,ioos:station:wmo:42377:1,2024-02-29T10:15:00Z,27.2925,-90.9681,21.3,18.0,298.1,-9999.0,'111111111,111111111,999999991'
Anadarko,ioos:station:wmo:42377:1,2024-02-29T10:35:00Z,27.2925,-90.9681,21.3,19.7,296.8,-9999.0,'111111111,111111111,999999991'
Anadarko,ioos:station:wmo:42377:1,2024-02-29T10:55:00Z,27.2925,-90.9681,21.3,15.9,286.0,-9999.0,'111111111,111111111,999999991'
Anadarko,ioos:station:wmo:42377:1,2024-02-29T11:15:00Z,27.2925,-90.9681,21.3,13.6,282.3,-9999.0,'111111111,111111111,999999991'
Anadarko,ioos:station:wmo:42377:1,2024-02-29T11:35:00Z,27.2925,-90.9681,21.3,16.5,292.1,-9999.0,'111111111,111111111,999999991'
Anadarko,ioos:station:wmo:42377:1,2024-02-29T11:55:00Z,27.2925,-90.9681,21.3,18.1,284.4,-9999.0,'111111111,111111111,999999991'
Anadarko,ioos:station:wmo:42377:1,2024-02-29T12:15:00Z,27.2925,-90.9681,21.3,21.5,283.2,-9999.0,'111111111,111111111,999999991'
Anadarko,ioos:station:wmo:42377:1,2024-02-29T12:35:00Z,27.2925,-90.9681,21.3,20.6,277.8,-9999.0,'111111111,111111111,999999991'
Anadarko,ioos:station:wmo:42377:1,2024-02-29T12:55:00Z,27.2925,-90.9681,21.3,22.9,278.0,-9999.0,'111111111,111111111,999999991'
Anadarko,ioos:station:wmo:42377:1,2024-02-29T13:15:00Z,27.2925,-90.9681,21.3,19.7,278.5,-9999.0,'111111111,111111111,999999991'